Regional Weather Roundup
Issued by NWS

Home | Current Version | Previous Version | Text Only | Print | Product List | Glossary Off
Versions: 1 2 3 4 5 6 7 8 9 10 11 12 13 14 15 16 17 18 19 20 21 22 23 24 25 26 27 28 29 30 31 32 33 34 35 36 37 38 39 40 41 42 43 44 45 46 47 48 49 50

000
ASUS45 KBOU 151907
RWRCO

WEATHER ROUNDUP FOR COLORADO
NATIONAL WEATHER SERVICE DENVER/BOULDER CO
100 PM MDT MON SEP 15 2014

NOTE: "FAIR" INDICATES FEW OR NO CLOUDS BELOW 12000 FEET WITH NO
SIGNIFICANT WEATHER AND/OR OBSTRUCTIONS TO VISIBILITY.

COZ001>005-013-030-031-152000-
...NORTHWEST COLORADO...

CITY           SKY/WX    TMP DP  RH WIND       PRES   REMARKS
CRAIG          SUNNY     77  37  23 CALM      30.28F
HAYDEN         SUNNY     75  30  19 N6        30.30F
MEEKER         SUNNY     78  39  24 CALM      30.28F
MOUNT WERNER   NOT AVBL
STEAMBOAT SPGS SUNNY     71  32  23 CALM      30.32S
WALDEN         SUNNY     70  30  23 CALM      30.40F
$$

COZ006>008-011-152000-
...WEST CENTRAL VALLEYS...

CITY           SKY/WX    TMP DP  RH WIND       PRES   REMARKS
GRAND JUNCTION MOSUNNY   80  40  23 VRB3      30.19F
MONTROSE       MOSUNNY   81  45  28 NW5       30.26F
EAGLE          MOSUNNY   73  36  25 CALM      30.33F
RIFLE          SUNNY     78  39  24 SW5       30.23F
DELTA          MOSUNNY   84  38  19 NW3       30.21F
NUCLA          MOSUNNY   81  41  24 N5        30.29F
$$

COZ017>023-064>068-152000-
...SOUTHWEST COLORADO...

CITY           SKY/WX    TMP DP  RH WIND       PRES   REMARKS
DURANGO        MOSUNNY   80  30  16 CALM      30.29F
CORTEZ         SUNNY     83  40  21 VRB3      30.25F
PAGOSA SPRINGS MOSUNNY   76  24  14 CALM      30.36F
TELLURIDE      NOT AVBL
WOLF CREEK PAS RAIN      46  30  53 CALM      30.69S
$$

COZ009-010-012-014-032>034-037-058>063-152000-
...CENTRAL COLORADO...

CITY           SKY/WX    TMP DP  RH WIND       PRES   REMARKS
ASPEN          MOSUNNY   71  32  23 NW6       30.38F
BUENA VISTA    MOSUNNY   71  25  17 CALM      30.40S
COPPER MTN     CLOUDY    54  27  35 W17G23    30.69S
BERTHOUD PASS  PTSUNNY   46  45  93 N5        30.73F
COTTONWOOD PAS PTSUNNY   70  21  16 SE9       30.54F
GUNNISON       SUNNY     70  36  28 SW6       30.42F
KREMMLING      SUNNY     73  32  21 NE3       30.37F
LEADVILLE      CLOUDY    61  26  26 VRB3      30.52F
MONARCH PASS   CLOUDY    54  28  37 W6        30.79S
SALIDA         MOSUNNY   78  25  14 N5        30.43F
SUNLIGHT       MOSUNNY   61  34  36 NW6       30.62S
WILKERSON PASS NOT AVBL
$$

COZ069>075-152000-
...SAN LUIS VALLEY/SANGRE DE CRISTO MOUNTAINS...

CITY           SKY/WX    TMP DP  RH WIND       PRES   REMARKS
ALAMOSA        MOSUNNY   77  36  22 VRB5      30.37F
LA VETA PASS   NOT AVBL
SAGUACHE       NOT AVBL
$$

COZ035-036-038>040-152000-
...NORTHERN COLORADO FRONT RANGE...

CITY           SKY/WX    TMP DP  RH WIND       PRES   REMARKS
DENVER INTL AP MOSUNNY   65  44  46 E6        30.33F
DMNS CITY PARK   N/A     69  40  35 E6        30.32F
AURORA         MOSUNNY   66  43  44 VRB2      30.34F
FRONT RANGE AP MOSUNNY   66  52  59 SE12      30.35
ERIE MUNI ARPT SUNNY     67  38  34 CALM      30.31F
BOULDER MUN AP SUNNY     66  43  42 E5        30.31F
CENTENNIAL     MOSUNNY   66  40  38 SE9       30.35S
BROOMFIELD     MOSUNNY   66  41  39 S6        30.34F
FORT COLLINS   SUNNY     66  43  42 S6        30.32F
LONGMONT       SUNNY     70  44  38 E3        30.32F
$$

COZ041-046-047-076>085-087-088-152000-
...PIKES PEAK/PALMER DIVIDE AND SOUTHERN FOOTHILLS...

CITY           SKY/WX    TMP DP  RH WIND       PRES   REMARKS
COLO. SPRINGS  MOSUNNY   69  48  47 S21G31    30.39S
A. F. ACADEMY  SUNNY     68  46  44 SE21G28   30.38F
ELLICOTT       NOT AVBL
FALCON         SUNNY     68  44  40 S10       30.42S
FORT CARSON    PTSUNNY   66  50  55 S16       30.38S
LIMON          CLOUDY    57  50  77 CALM      30.37F
MONUMENT HILL  SUNNY     64  41  42 SE5       30.39F
TRINIDAD       CLOUDY    58  50  75 NE5       30.39F
$$

COZ042>045-048>051-090-091-152000-
...NORTHEAST COLORADO...

CITY           SKY/WX    TMP DP  RH WIND       PRES   REMARKS
GREELEY ARPT   SUNNY     66  43  42 SE8       30.32F
AKRON          MOSUNNY   61  47  59 VRB3      30.33F
BURLINGTON     CLOUDY    54  49  83 N9        30.34F
WRAY           SUNNY     65  45  49 NE3       30.32F
STERLING       SUNNY     66  48  52 E5        30.30F
HOLYOKE        SUNNY     63  43  48 E6        30.33S
FORT MORGAN    SUNNY     65  45  48 E3        30.33F
$$

COZ086-089-092>099-152000-
...SOUTHEAST COLORADO...

CITY           SKY/WX    TMP DP  RH WIND       PRES   REMARKS
PUEBLO         CLOUDY    67  52  58 SE13      30.34F
LA JUNTA       CLOUDY    64  54  69 NE7       30.33S
LAMAR          CLOUDY    63  53  70 N12       30.30S
SPRINGFIELD      N/A     57  55  93 N18       30.30S
$$



USA.gov is the U.S. government's official web portal to all federal, state and local government web resources and services.